Location: *
(47.2969°N, 10.2930°E)
Time: 13:56:22
(UTC+00:00)

STARLINK-1199 - Pass Details

Date: 09 April 2020
Orbit: 549 x 550 km, 53.0° (Epoch: 26 May)

Event Time Altitude Azimuth Distance (km) Brightness Sun altitude
Rises 19:49:23 0° 294° (WNW) 2,718 8.8 -17.8°
Reaches altitude 10° 19:51:49 10° 283° (WNW) 1,821 7.3 -18.1°
Maximum altitude 19:55:25 29° 223° (SW) 1,020 5.0 -18.6°
Enters shadow 19:56:50 23° 188° (S) 1,181 5.0 -18.8°
